Flag for Canada Weather past 2 weeks in Pictou County, Nova Scotia, Canada

Now
22 °F

Cold.


Feels Like: 6 °F
Forecast: 0 / 24 °F
Wind: 23 mph from Northwest

Location: Caribou Point

Current Time: Feb 1, 2015 at 5:44:08 AM

Latest Report: Feb 1, 2015 at 4:00 AM


Visibility: N/A

Pressure: 29.38 "Hg

Humidity: 95%

Dew point: 21 °F

Location of Pictou CountyLocation

Historic Weather in Pictou County — Graph

°F

Pictou County temperature yesterday

Maximum temperature yesterday: 35 °F (at 1:00 PM)
Minimum temperature yesterday: 24 °F (at 12:00 AM)
Average temperature yesterday: 29 °F

Past Weeks' High & Low Weather Summary

 TemperatureHumidityPressure
High49 °F (Jan 25, 3:00 AM)100% (Jan 19, 11:00 PM)30.40 "Hg (Jan 19, 11:00 PM)
Low0 °F (Jan 17, 8:00 AM)48% (Jan 20, 2:00 PM)28.48 "Hg (Jan 25, 4:00 AM)
Average24 °F81%29.83 "Hg
* Reported Jan 17 4:00 AM — Feb 1 4:00 AM, Pictou County, Weather by CustomWeather, © 2014

Note: Actual official high and low records may vary slightly from our data, if they occured in-between our weather recording intervals... More about our weather records

Advertising

Pictou County weather history for previous 24 hours

 ConditionsComfort  
Time TempWeatherWind HumidityBarometerVisibility
4:00 AM
Feb 1
22 °FCold.23 mph95%29.38 "HgN/A
3:00 AM25 °FCold.24 mph94%29.37 "HgN/A
2:00 AM26 °FChilly.24 mph95%29.35 "HgN/A
1:00 AM27 °FChilly.25 mph95%29.32 "HgN/A
12:00 AM27 °FChilly.23 mph98%29.30 "HgN/A
11:00 PM
Jan 31
27 °FChilly.24 mph97%29.29 "HgN/A
10:00 PM30 °FChilly.21 mph96%29.28 "HgN/A
9:00 PM31 °FChilly.10 mph96%29.27 "HgN/A
1:00 PM35 °FChilly.15 mph98%29.13 "HgN/A
12:00 PM33 °FChilly.16 mph95%29.20 "HgN/A
11:00 AM32 °FChilly.3 mph98%29.28 "HgN/A
10:00 AM31 °FChilly.7 mph99%29.36 "HgN/A
9:00 AM31 °FChilly.20 mph98%29.40 "HgN/A
8:00 AM29 °FChilly.22 mph98%29.46 "HgN/A
7:00 AM29 °FChilly.23 mph98%29.50 "HgN/A
6:00 AM28 °FChilly.24 mph98%29.54 "HgN/A
5:00 AM28 °FChilly.20 mph95%29.64 "HgN/A
Weather by CustomWeather, © 2014

See weather overviewHow to use our weather pages